Wind_Speed
2 2 2 1 1 0 1 2 2 2 3 3 4 4 4 4 4 5 5 4 3 3 3 3 3 3 3 2 2 2 1 1 1 1 1 1 1 2 2 2 2 2 2 3 4 5 5 6 6
3 3 2 1 1 1 2 3 3 3 3 4 5 4 4 4 5 5 4 4 3 3 3 3 3 3 3 3 3 2 2 1 1 1 2 2 2 2 2 2 2 2 3 4 5 5 6 6 6
4 3 2 1 2 3 3 3 3 3 3 4 5 5 4 5 5 5 5 4 4 3 3 3 3 4 4 4 3 2 2 2 2 2 2 2 2 2 3 3 2 2 3 4 4 5 6 7 7
4 3 3 2 3 4 4 3 3 3 3 4 5 5 5 6 6 6 5 5 4 3 3 3 3 4 4 3 3 3 3 3 3 2 2 3 3 3 4 4 4 4 4 4 5 5 6 8 8
5 4 3 4 5 6 6 5 4 3 3 4 5 5 6 6 6 5 5 4 3 3 3 3 3 4 4 3 4 3 3 3 3 3 3 4 4 4 5 5 4 5 5 6 6 7 7 7 8
6 5 4 6 7 7 7 6 5 3 3 3 4 5 6 6 6 5 4 4 4 4 4 4 4 4 4 4 4 4 4 4 4 4 4 4 4 5 6 6 5 5 5 6 6 6 8 8 8
7 6 6 7 8 9 8 7 6 4 4 4 4 6 6 6 6 5 5 5 4 4 4 4 4 5 5 5 5 4 4 5 5 5 5 5 4 5 6 5 6 7 6 6 6 7 7 8 8
8 8 8 9 9 10 9 8 7 6 5 5 5 6 6 7 6 6 6 6 5 5 5 5 5 5 5 5 5 5 5 5 5 5 6 6 6 6 7 7 7 8 7 7 7 7 8 8 8
10 10 10 11 12 12 11 10 9 8 8 7 7 7 6 7 7 6 7 7 6 6 6 6 6 6 6 5 5 5 5 6 6 6 6 7 7 7 8 8 8 9 8 8 8 9 9 8 9
11 11 13 13 14 13 12 11 10 9 9 9 8 8 7 7 8 8 8 7 7 7 7 6 6 7 6 6 6 6 6 7 7 7 7 8 8 8 9 9 9 9 9 8 8 9 10 9 10
13 13 14 14 14 13 12 11 11 10 10 10 9 10 9 8 9 9 8 7 8 8 8 7 7 7 7 7 7 7 7 7 8 8 9 9 9 9 9 10 10 10 9 9 9 10 11 10 10
14 15 15 15 15 14 13 12 12 11 12 12 12 11 10 10 10 10 9 8 8 9 9 8 8 8 8 8 8 8 8 8 9 8 9 9 9 9 10 10 10 9 10 10 10 11 11 11 11
16 16 16 16 16 15 14 13 13 13 14 14 14 13 12 11 11 11 10 10 9 10 10 9 9 9 9 9 9 9 9 9 9 9 9 9 9 10 10 10 10 10 10 10 10 11 12 12 12
16 16 16 16 16 15 15 15 15 15 15 15 15 14 13 12 13 12 11 11 11 11 10 10 10 10 10 10 10 10 11 11 10 10 10 10 10 10 10 10 10 10 10 10 10 10 11 12 13
16 17 17 17 16 16 16 16 18 17 17 16 16 15 14 14 14 14 13 12 12 12 12 12 11 11 11 12 12 12 12 11 11 10 11 10 10 10 10 9 10 9 10 10 10 11 11 12 13
17 17 18 18 18 18 17 17 18 17 17 17 16 16 16 16 15 15 15 14 14 14 14 13 12 12 13 13 13 13 12 11 11 11 11 11 11 11 11 11 10 10 10 10 10 11 12 12 13
18 18 18 19 19 19 19 18 19 18 18 18 18 18 18 17 17 16 16 15 15 15 15 14 14 14 13 14 13 12 12 12 12 12 12 12 12 12 12 12 12 12 11 11 11 11 12 12 13
19 18 19 19 19 20 20 20 20 20 19 19 18 19 19 18 17 17 16 16 16 16 16 15 15 15 15 14 13 13 13 13 13 13 13 13 12 12 12 12 12 12 12 12 12 13 13 13 14
19 19 19 19 19 20 20 20 21 21 20 20 19 19 19 19 18 18 17 17 17 17 17 17 17 16 15 15 14 13 13 13 13 14 14 13 13 13 13 13 13 13 13 13 14 14 14 13 14
19 19 19 20 20 20 20 21 21 21 20 20 20 20 20 19 18 18 18 17 16 17 18 18 18 17 16 16 15 15 15 15 15 14 14 14 14 14 14 14 14 14 14 14 14 14 14 15 15
19 19 20 20 21 21 21 21 21 20 20 21 20 19 19 19 19 19 18 18 17 16 17 17 18 16 16 16 16 16 16 16 15 15 14 15 15 15 15 15 15 16 16 15 16 16 15 16 16
19 20 20 20 21 21 21 21 21 20 20 20 20 19 19 19 19 18 18 18 18 16 16 16 15 15 14 15 17 17 17 16 16 15 16 16 16 16 16 16 16 17 17 17 17 17 16 16 16
20 20 20 21 21 21 21 22 22 21 20 20 19 19 20 20 20 19 19 18 18 17 16 15 14 14 14 15 16 17 17 17 17 17 17 17 17 17 18 18 17 17 18 17 17 17 17 16 16
20 20 21 21 21 22 20 21 20 21 19 18 18 19 20 20 20 20 20 19 19 18 16 15 14 14 14 15 16 17 16 17 18 17 17 17 18 18 19 18 18 19 19 19 18 17 17 17 17
21 20 19 19 21 21 20 21 20 19 18 18 18 18 18 19 20 20 19 20 19 18 18 16 16 16 15 15 16 17 17 17 17 17 18 17 18 18 18 18 18 19 19 20 19 18 18 18 17
22 21 20 20 20 20 21 20 19 18 18 18 18 17 17 18 19 19 19 19 19 18 18 17 17 17 16 16 16 16 17 17 17 17 17 17 17 17 17 17 17 18 19 18 19 19 18 18 18
23 23 21 21 20 20 20 20 19 17 18 18 17 18 18 18 18 18 19 19 19 19 19 18 18 18 18 17 16 15 16 17 17 16 16 16 16 16 16 16 16 16 17 16 16 17 18 18 18
24 23 22 22 21 21 20 20 19 17 17 16 17 17 19 19 19 20 20 20 20 20 20 20 19 19 18 17 17 17 16 16 17 16 16 16 16 16 15 15 16 15 16 16 17 17 18 19 19
23 24 24 23 22 21 20 19 19 18 17 17 18 18 19 20 20 19 19 20 21 21 21 20 20 20 19 18 18 17 18 17 18 17 17 17 16 16 15 16 16 17 18 18 18 18 18 19 20
23 24 23 23 22 22 21 22 19 19 18 18 18 18 18 19 19 19 19 20 20 21 20 20 20 20 20 19 19 19 19 19 18 18 18 17 16 15 16 16 17 17 18 18 19 18 18 19 20
Wind_Direction
184 181 178 178 127 122 256 271 295 310 330 336 336 336 345 351 350 346 345 345 333 334 343 343 350 351 341 332 332 326 319 339 326 263 246 250 259 276 274 258 243 237 236 235 239 232 226 229 229
209 209 206 204 120 232 262 259 284 310 332 335 336 336 337 347 347 350 349 346 332 336 330 332 331 333 331 325 315 309 289 310 310 275 265 264 276 285 286 267 259 240 233 238 239 241 241 239 237
224 221 225 216 195 212 243 252 278 305 332 337 341 340 341 340 340 341 337 335 332 327 313 313 319 316 316 310 308 300 278 278 277 264 261 261 269 277 283 282 268 264 239 229 238 248 247 242 239
229 229 231 235 245 242 250 265 279 300 326 333 341 342 342 341 343 340 336 333 332 325 310 300 310 315 309 305 303 294 283 283 276 268 265 272 274 282 287 283 277 266 259 261 253 258 256 246 239
230 228 231 250 251 255 261 271 279 307 331 330 342 345 341 338 342 344 342 333 330 324 312 301 307 308 307 306 301 296 289 282 276 268 267 267 274 283 291 286 274 271 273 278 270 266 264 255 243
236 238 235 244 253 258 262 269 276 295 318 327 334 336 337 336 334 333 327 326 319 314 309 307 303 308 313 311 306 301 294 281 272 267 275 276 275 279 289 288 271 270 272 273 272 271 267 265 252
239 236 234 241 250 257 262 268 273 290 308 317 317 318 321 327 327 325 320 318 312 308 308 305 311 311 308 305 300 297 294 283 278 279 280 283 283 284 286 279 270 270 273 275 272 271 271 268 253
247 242 241 244 247 254 259 265 272 281 294 298 298 306 307 315 314 314 311 307 301 299 300 297 304 307 306 300 291 291 292 288 285 285 284 288 288 286 283 281 274 271 269 270 269 267 268 265 260
248 244 244 245 244 250 255 261 267 280 286 288 287 294 298 307 306 307 310 308 300 298 294 292 290 294 298 298 297 295 294 292 290 290 288 289 287 284 281 282 281 274 266 266 267 264 263 261 257
244 243 245 244 244 246 250 256 265 275 282 286 285 287 292 297 298 300 306 305 296 294 291 289 284 287 295 299 297 294 292 293 292 293 290 289 286 285 284 283 282 277 273 268 264 264 263 263 255
244 245 248 246 246 246 248 255 264 270 275 280 284 288 289 289 291 296 300 298 294 292 291 289 283 284 289 290 292 292 292 296 295 292 293 295 294 290 287 284 285 276 269 267 265 263 262 262 253
248 249 250 248 248 247 250 255 261 264 266 274 281 286 285 286 290 291 291 290 289 286 284 286 284 285 286 287 288 291 291 295 293 291 291 295 296 293 291 288 287 277 269 268 268 264 260 260 252
250 249 250 250 250 249 250 253 258 260 263 269 277 283 283 285 286 287 286 286 286 283 282 280 280 282 283 284 285 286 288 286 284 283 285 290 292 292 292 290 290 281 275 274 271 266 264 256 251
251 250 251 252 252 250 250 253 256 259 262 267 274 279 281 282 281 282 285 286 284 282 280 278 277 279 280 281 282 282 282 281 278 278 280 285 288 289 291 291 288 281 274 273 273 273 271 259 254
251 251 252 253 252 252 253 255 258 260 263 268 272 276 278 278 278 278 280 281 279 279 277 276 276 275 277 280 281 281 278 277 276 277 278 282 284 285 287 290 290 286 278 272 275 273 273 262 254
252 252 253 254 254 254 257 258 261 262 262 263 268 273 276 278 279 279 277 277 278 278 277 274 276 275 274 274 275 277 276 277 278 279 278 277 279 279 281 283 284 281 280 276 276 274 272 264 259
252 253 254 255 255 255 255 258 260 262 261 262 265 269 273 275 277 279 279 278 279 278 276 274 277 275 272 272 272 274 278 279 277 277 279 276 278 277 279 279 277 273 272 273 273 271 268 265 264
253 253 254 255 255 255 255 258 261 261 260 262 264 265 267 270 274 274 277 278 278 276 275 272 275 275 273 273 273 274 277 278 276 277 280 281 277 275 275 275 272 270 269 271 272 269 266 267 270
252 252 253 254 254 255 257 258 261 261 260 260 262 263 265 268 271 271 273 274 275 275 275 273 273 274 273 272 273 275 278 276 274 276 280 281 279 278 277 275 271 270 272 273 271 267 266 268 269
248 250 252 253 255 256 260 261 260 261 261 262 265 264 263 265 267 266 269 272 275 274 275 272 272 272 271 271 270 272 277 274 273 276 281 282 281 280 280 278 272 271 274 274 271 268 267 268 268
248 249 251 254 258 261 264 264 261 262 262 262 264 264 263 264 264 263 265 269 271 275 274 273 274 272 270 270 271 273 274 274 276 276 279 282 284 281 279 277 273 273 273 271 270 271 270 271 269
248 249 251 254 259 263 265 269 264 263 264 262 263 264 263 262 262 260 261 264 268 272 273 274 271 267 269 271 272 274 274 274 275 276 280 283 283 281 277 276 274 273 272 270 270 271 272 271 270
245 247 251 256 261 264 266 267 267 265 264 263 262 261 260 260 261 261 260 261 264 269 270 267 265 265 268 272 275 275 274 273 274 275 280 283 281 279 278 275 273 272 271 271 271 271 272 271 269
244 249 254 259 263 265 266 267 268 266 266 264 260 259 259 260 260 260 259 261 263 265 266 263 262 265 267 272 275 277 276 274 274 273 277 280 280 277 277 276 275 272 271 271 271 271 271 269 268
244 247 254 258 262 266 267 265 267 268 264 260 259 259 257 258 259 258 258 259 260 262 264 261 260 261 266 271 274 276 274 272 273 275 278 279 280 280 282 281 276 272 271 271 270 271 270 269 267
245 246 250 257 262 266 267 267 269 269 262 260 258 255 256 257 258 257 256 257 258 261 262 260 259 261 266 270 274 275 273 271 273 276 279 279 279 282 284 284 280 277 274 273 271 269 269 269 269
245 246 249 256 264 269 268 268 273 271 265 260 257 255 254 255 258 258 255 255 257 258 259 260 260 262 265 268 268 272 273 273 274 275 280 281 282 284 285 284 281 277 275 276 273 269 269 269 268
245 248 250 254 261 266 268 269 270 272 268 262 258 255 253 254 257 257 255 255 257 259 259 259 261 263 265 267 269 270 272 277 275 276 279 282 283 281 282 282 282 280 279 278 277 274 269 268 269
246 246 248 253 257 263 268 267 265 270 272 264 258 254 253 254 256 257 255 255 258 259 259 261 261 264 266 269 269 270 273 276 275 274 276 280 282 284 282 285 283 281 280 280 281 279 274 270 269
247 247 249 251 256 261 268 270 268 270 267 261 258 257 255 253 256 257 258 257 259 260 261 262 263 266 267 268 268 269 271 274 275 274 277 278 280 284 285 286 284 283 283 282 281 281 280 275 271
Height
5898 5899 5899 5900 5902 5903 5903 5902 5901 5901 5900 5899 5899 5898 5897 5896 5896 5897 5894 5892 5891 5890 5890 5890 5889 5889 5888 5887 5887 5886 5885 5884 5884 5884 5884 5883 5883 5883 5883 5883 5883 5883 5883 5884 5884 5884 5885 5886 5886
5898 5898 5899 5900 5902 5904 5903 5901 5901 5900 5900 5899 5898 5897 5896 5895 5894 5893 5892 5891 5890 5889 5889 5889 5888 5888 5887 5887 5886 5885 5885 5884 5883 5883 5883 5883 5882 5882 5882 5882 5882 5882 5882 5883 5883 5883 5884 5885 5885
5897 5898 5899 5900 5901 5902 5901 5900 5900 5899 5898 5898 5897 5896 5895 5894 5893 5892 5891 5890 5889 5888 5888 5888 5887 5887 5886 5886 5885 5884 5884 5883 5883 5882 5882 5882 5881 5881 5881 5881 5881 5881 5881 5881 5882 5882 5883 5883 5884
5896 5898 5899 5900 5900 5900 5899 5899 5899 5898 5898 5897 5896 5895 5894 5893 5892 5891 5890 5889 5888 5888 5887 5887 5886 5886 5885 5885 5884 5884 5883 5882 5882 5881 5881 5881 5880 5880 5880 5880 5880 5880 5880 5880 5880 5881 5881 5882 5882
5895 5897 5898 5899 5898 5898 5898 5898 5898 5897 5897 5896 5895 5894 5893 5893 5891 5890 5889 5888 5888 5887 5886 5886 5886 5885 5884 5884 5883 5883 5882 5881 5881 5880 5880 5880 5879 5879 5879 5879 5878 5879 5879 5879 5879 5879 5880 5880 5881
5895 5896 5898 5898 5897 5896 5896 5896 5897 5896 5896 5895 5895 5894 5893 5892 5891 5889 5888 5888 5887 5886 5886 5885 5885 5884 5884 5883 5883 5882 5881 5880 5880 5879 5879 5878 5877 5878 5878 5877 5877 5877 5878 5878 5878 5878 5878 5878 5879
5893 5894 5895 5896 5895 5895 5895 5895 5895 5895 5895 5895 5894 5893 5892 5891 5890 5889 5888 5887 5886 5885 5885 5884 5884 5883 5883 5882 5881 5881 5880 5879 5879 5878 5878 5877 5877 5877 5876 5876 5876 5876 5876 5876 5876 5876 5876 5877 5877
5891 5893 5893 5894 5894 5893 5893 5893 5893 5893 5893 5893 5893 5892 5891 5890 5889 5888 5887 5886 5885 5885 5884 5883 5883 5882 5881 5881 5880 5879 5879 5878 5877 5877 5876 5876 5875 5875 5875 5874 5874 5874 5874 5874 5874 5874 5875 5875 5875
5888 5891 5891 5891 5891 5891 5891 5891 5892 5892 5892 5891 5891 5891 5890 5889 5888 5887 5886 5885 5884 5883 5883 5882 5882 5881 5880 5879 5879 5878 5877 5877 5876 5875 5875 5874 5874 5873 5873 5873 5872 5872 5872 5872 5872 5872 5873 5873 5873
5885 5887 5888 5888 5888 5888 5889 5889 5889 5890 5889 5889 5889 5889 5888 5887 5886 5885 5885 5884 5883 5882 5881 5881 5880 5879 5879 5878 5877 5876 5876 5875 5874 5873 5873 5872 5872 5871 5871 5870 5870 5870 5870 5869 5869 5870 5870 5870 5871
5882 5883 5884 5884 5885 5885 5886 5887 5887 5887 5887 5887 5887 5886 5886 5885 5884 5884 5883 5882 5882 5881 5880 5879 5879 5878 5877 5876 5876 5875 5874 5873 5872 5872 5871 5870 5870 5869 5869 5868 5868 5867 5867 5867 5867 5867 5867 5868 5868
5879 5880 5880 5881 5881 5883 5883 5884 5885 5885 5885 5884 5884 5884 5883 5883 5882 5882 5881 5880 5880 5879 5878 5878 5877 5876 5875 5874 5874 5873 5872 5871 5870 5870 5869 5869 5868 5867 5867 5866 5865 5865 5865 5864 5864 5864 5865 5865 5865
5875 5876 5876 5877 5878 5879 5880 5881 5882 5882 5882 5881 5881 5881 5881 5880 5880 5879 5879 5878 5878 5877 5876 5875 5875 5874 5873 5872 5872 5871 5870 5869 5868 5868 5867 5867 5866 5865 5865 5864 5863 5863 5862 5862 5862 5862 5862 5863 5863
5871 5872 5873 5873 5875 5876 5877 5878 5878 5879 5878 5878 5878 5878 5878 5877 5877 5877 5876 5875 5875 5874 5874 5873 5872 5871 5871 5870 5869 5869 5868 5867 5866 5865 5865 5864 5863 5863 5862 5862 5861 5860 5860 5859 5859 5859 5859 5860 5860
5867 5868 5869 5870 5871 5872 5874 5875 5875 5875 5875 5875 5875 5875 5875 5874 5874 5874 5873 5873 5872 5872 5871 5870 5869 5869 5868 5868 5867 5866 5865 5864 5863 5863 5862 5862 5861 5860 5860 5859 5859 5858 5857 5857 5857 5857 5857 5857 5857
5863 5865 5867 5867 5868 5869 5871 5872 5870 5870 5871 5871 5871 5871 5871 5871 5871 5871 5870 5870 5869 5869 5868 5867 5866 5866 5865 5865 5864 5863 5862 5861 5861 5860 5859 5859 5858 5857 5857 5856 5856 5855 5855 5854 5854 5854 5854 5854 5854
5860 5862 5863 5864 5864 5864 5866 5867 5866 5866 5867 5867 5867 5867 5867 5867 5867 5867 5867 5866 5866 5865 5865 5864 5864 5863 5862 5862 5861 5860 5859 5859 5858 5857 5856 5856 5855 5854 5854 5853 5853 5852 5852 5852 5851 5851 5851 5851 5851
5857 5858 5859 5859 5859 5860 5861 5862 5862 5862 5862 5863 5863 5863 5863 5863 5863 5863 5863 5862 5862 5862 5861 5861 5860 5860 5859 5859 5858 5857 5856 5856 5855 5854 5853 5852 5852 5851 5850 5850 5849 5849 5849 5848 5848 5848 5848 5848 5848
5852 5853 5854 5855 5855 5856 5856 5857 5858 5857 5858 5858 5858 5858 5858 5859 5859 5859 5859 5859 5858 5858 5858 5857 5857 5856 5856 5855 5855 5854 5853 5853 5852 5851 5850 5849 5848 5847 5847 5846 5846 5846 5845 5845 5845 5844 5844 5844 5844
5847 5848 5849 5850 5850 5851 5851 5852 5853 5852 5853 5853 5853 5853 5854 5854 5854 5855 5855 5855 5854 5854 5853 5853 5853 5853 5852 5852 5852 5851 5850 5849 5848 5847 5847 5846 5845 5844 5843 5842 5842 5842 5841 5841 5841 5841 5840 5840 5840
5842 5844 5845 5846 5846 5846 5847 5847 5848 5848 5848 5848 5848 5848 5849 5849 5850 5850 5850 5850 5850 5850 5849 5849 5849 5848 5848 5848 5848 5847 5847 5846 5845 5844 5843 5842 5841 5840 5839 5838 5838 5837 5837 5837 5836 5836 5836 5836 5836
5838 5839 5840 5840 5841 5842 5842 5842 5843 5843 5843 5843 5843 5844 5844 5845 5845 5846 5846 5846 5846 5846 5845 5845 5844 5845 5845 5845 5844 5844 5843 5842 5842 5840 5839 5838 5837 5836 5835 5834 5833 5833 5833 5832 5832 5831 5831 5831 5831
5833 5834 5835 5835 5836 5837 5837 5837 5838 5837 5838 5838 5839 5839 5839 5840 5841 5841 5842 5842 5842 5842 5842 5841 5841 5841 5841 5841 5840 5839 5839 5838 5837 5836 5835 5834 5833 5832 5831 5830 5829 5828 5828 5827 5827 5827 5826 5826 5826
5827 5829 5830 5830 5831 5832 5832 5832 5833 5832 5833 5833 5833 5834 5834 5835 5836 5836 5837 5837 5838 5838 5838 5838 5838 5838 5838 5837 5837 5836 5834 5834 5833 5832 5831 5830 5829 5828 5826 5825 5824 5824 5823 5822 5822 5821 5821 5821 5821
5823 5825 5826 5827 5827 5828 5827 5826 5827 5827 5827 5827 5828 5829 5829 5830 5830 5831 5832 5832 5833 5834 5834 5834 5834 5834 5834 5834 5833 5832 5830 5830 5829 5828 5827 5825 5824 5823 5822 5820 5819 5818 5818 5817 5817 5816 5816 5816 5816
5817 5820 5822 5823 5824 5823 5822 5821 5822 5822 5822 5822 5823 5823 5824 5825 5825 5826 5826 5827 5828 5829 5829 5830 5830 5830 5830 5829 5829 5828 5826 5825 5824 5823 5822 5821 5820 5819 5817 5816 5815 5813 5812 5812 5811 5811 5810 5811 5811
5812 5814 5816 5817 5817 5818 5817 5817 5817 5817 5817 5817 5818 5819 5819 5820 5820 5821 5822 5822 5823 5824 5825 5825 5825 5825 5825 5824 5824 5823 5822 5821 5820 5819 5818 5817 5816 5814 5813 5812 5810 5809 5808 5807 5806 5805 5805 5805 5806
5807 5809 5810 5811 5812 5812 5813 5812 5812 5812 5812 5812 5813 5813 5814 5815 5815 5815 5816 5817 5818 5819 5819 5820 5820 5819 5819 5819 5819 5818 5817 5816 5815 5815 5814 5813 5811 5810 5809 5808 5806 5805 5804 5802 5801 5800 5800 5800 5800
5801 5803 5804 5806 5807 5807 5808 5810 5807 5807 5807 5807 5808 5808 5809 5809 5810 5810 5811 5812 5812 5813 5813 5814 5814 5814 5814 5814 5813 5813 5812 5811 5810 5809 5809 5808 5807 5806 5804 5803 5802 5801 5799 5798 5796 5795 5795 5794 5794
5796 5797 5799 5801 5801 5801 5802 5805 5802 5802 5802 5802 5802 5802 5803 5804 5804 5805 5805 5806 5807 5807 5807 5808 5808 5808 5808 5808 5808 5808 5807 5806 5805 5805 5804 5803 5803 5801 5800 5799 5798 5796 5794 5793 5791 5790 5789 5789 5788